Location: Christchurch
(43.5330°S, 172.6330°E)
Time: 01:04:27
(UTC+13:00)

Cosmos 968 Rocket - Pass Details

Date: 24 January 2019
Orbit: 742 x 770 km, 74.0° (Epoch: 19 February)

Event Time Altitude Azimuth Distance (km) Brightness Sun altitude
Exits shadow 23:08:48 33° 34° (NNE) 1,256 4.0 -18.1°
Maximum altitude 23:10:26 44° 77° (ENE) 1,059 3.9 -18.3°
Drops below altitude 10° 23:15:25 10° 147° (SSE) 2,328 6.2 -18.9°
Sets 23:17:55 0° 153° (SSE) 3,266 7.1 -19.1°
